Regional Weather Roundup
Issued by NWS

Home | Current Version | Previous Version | Graphics & Text | Print | Product List | Glossary On
Versions: 1 2 3 4 5 6 7 8 9 10 11 12 13 14 15 16 17 18 19 20 21 22 23 24 25 26 27 28 29 30 31 32 33 34 35 36 37 38 39 40 41 42 43 44 45 46 47 48 49 50
000
ASUS43 KMPX 220901
RWRMN
WEATHER ROUNDUP FOR MINNESOTA
NATIONAL WEATHER SERVICE TWIN CITIES/CHANHASSEN MN
400 AM CDT WED MAR 22 2017


NOTE: "FAIR" INDICATES FEW OR NO CLOUDS BELOW 12,000 FEET WITH NO
SIGNIFICANT WEATHER AND/OR OBSTRUCTIONS TO VISIBILITY. N/A MEANS
CURRENT SKY AND/OR WEATHER CONDITIONS ARE NOT AVAILABLE.

MNZ060>063-068>070-221000-
   Twin Cities Metro

CITY           SKY/WX    TMP DP  RH WIND       PRES   REMARKS
TWIN CITIES    CLEAR     23   4  44 E7        30.54F WCI  15
ST PAUL        PTCLDY    23   7  50 NE6       30.56F WCI  16
CRYSTAL        PTCLDY    19   4  51 NE3       30.54F
BLAINE         PTCLDY    19   9  63 CALM      30.54F
LAKEVILLE      CLEAR     18  10  73 E5        30.53S WCI  11
EDEN PRAIRIE   CLEAR     23   6  48 NE7       30.52F WCI  15
SOUTH ST PAUL  PTCLDY    23   7  50 NE3       30.55S
LAKE ELMO      FAIR      21   9  58 NE5       30.55F WCI  15
$$
MNZ001>005-007-008-013>017-022>024-027-028-221000-
   Northwest Minnesota

CITY           SKY/WX    TMP DP  RH WIND       PRES   REMARKS
BEMIDJI        CLOUDY     9   5  82 E3        30.50F
HALLOCK        CLEAR     18  10  73 E8        30.50F WCI   7
ROSEAU         CLOUDY    16   9  73 SE3       30.51F
WARROAD        PTCLDY    12   7  79 E3        30.53F
THIEF RVR FALL CLEAR     18   6  59 SE10      30.50F WCI   6
CROOKSTON      CLEAR     19   9  63 SE10      30.51F WCI   8
FOSSTON        CLOUDY    12   3  67 E6        30.49F WCI   3
DETROIT LAKES  CLOUDY    19   5  53 SE7       30.48F WCI  10
MOORHEAD       CLOUDY    19  10  68 SE6       30.50F WCI  11
PARK RAPIDS    CLOUDY    16  -1  47 E8        30.49F WCI   5
MAHNOMEN       FAIR      14   3  59 E8        30.48F WCI   3
$$
MNZ006-009>011-018-025>026-221000-
   North Central Minnesota

CITY           SKY/WX    TMP DP  RH WIND       PRES   REMARKS
BAUDETTE       CLOUDY     9   5  84 CALM      30.53F
FLAG ISLAND    CLOUDY    10   7  85 CALM      30.53F
INTL FALLS     CLOUDY     7   2  80 CALM      30.54F
WASKISH        CLOUDY     9   5  85 SE3       30.53F
BIG FORK       CLOUDY     7   1  78 CALM      30.54R
LONGVILLE      CLOUDY     9   7  92 CALM      30.53F
GRAND RAPIDS   CLOUDY     9   4  80 CALM      30.55F
CRANE LAKE     CLOUDY     1   0  92 CALM      30.58F
ORR            PTCLDY     3   0  85 CALM      30.52S
COOK           PTCLDY     5   1  85 CALM      30.55S
WALKER         FAIR       9   4  80 CALM      30.51F
$$
MNZ012-019>021-037-221000-
   Northeast Minnesota

CITY           SKY/WX    TMP DP  RH WIND       PRES   REMARKS
DULUTH         CLOUDY    14   0  53 NE7       30.53F WCI   4
ELY            CLOUDY     3   0  85 CALM      30.55S
HIBBING        CLEAR      6   3  87 N3        30.53F
EVELETH        CLOUDY     6   2  82 CALM      30.54F
DULUTH HARBOR  CLOUDY    23  10  58 NE15      30.60F WCI  10
TWO HARBORS    CLEAR     12   3  67 N3        30.55F
SILVER BAY     CLEAR     10   0  61 NW5       30.55F WCI   2
GRAND MARAIS     N/A     12   2  64 CALM      30.62R
G MARAIS ARPRT CLEAR      3  -8  60 CALM      30.51S
$$
MNZ029>031-032-039>041-046>048-054>057-064-221000-
   West Central Minnesota

CITY           SKY/WX    TMP DP  RH WIND       PRES   REMARKS
FERGUS FALLS   CLOUDY    19   3  49 SE8       30.54F WCI   9
WHEATON        CLOUDY    18  10  73 SE8       30.51F WCI   7
MORRIS         CLOUDY    18  10  73 E8        30.48F WCI   7
ALEXANDRIA     CLOUDY    17   5  59 E6        30.49F WCI   9
ELBOW LAKE     FAIR      17   7  65 SE9       30.49F WCI   6
WADENA         CLOUDY    14   3  62 E6        30.49F WCI   5
GLENWOOD       CLOUDY    16   9  73 E6        30.50F WCI   7
APPLETON       CLOUDY    21  12  68 CALM      30.50F
BENSON         CLOUDY    19   7  58 SE7       30.52F WCI  10
ORTONVILLE     CLOUDY    19  12  73 SE8       30.49S WCI   9
MADISON        CLOUDY    21  16  79 SE7       30.50F WCI  13
WILLMAR        FAIR      21  10  63 E7        30.51F WCI  13
$$
MNZ033>034-036-042>043-049>051-058-059-221000-
   Central Minnesota

CITY           SKY/WX    TMP DP  RH WIND       PRES   REMARKS
ST CLOUD       CLOUDY    19   6  57 E5        30.53F WCI  12
SAUK CENTRE    FAIR      18   5  58 E8        30.50F WCI   7
PAYNESVILLE      N/A     19   8  62 E6        30.51F WCI  11
AITKIN         CLOUDY    10   5  79 CALM      30.53S
PINE RIVER     CLOUDY    10   5  79 CALM      30.54F
BRAINERD       CLOUDY    12   5  73 CALM      30.53F
STAPLES        CLOUDY    10   7  85 CALM      30.51F
LONG PRAIRIE   FAIR      18   5  57 NE5       30.51F WCI  11
LITTLE FALLS   CLOUDY    18   5  57 E3        30.53F
LITCHFIELD     CLOUDY    21  10  63 E6        30.52F WCI  14
BUFFALO        CLOUDY    20   7  57 NE5       30.54F WCI  13
MAPLE LAKE     CLOUDY    20  10  66 E8        30.53F WCI  10
HUTCHINSON     CLEAR     22  10  59 NE7       30.52F WCI  14
$$
MNZ037-044-045-052-053-221000-
   East Central Minnesota

CITY           SKY/WX    TMP DP  RH WIND       PRES   REMARKS
PRINCETON      CLOUDY    16  10  79 CALM      30.54F
MORA           PTCLDY    18   3  53 CALM      30.56S
CAMBRIDGE      PTCLDY    18   7  62 CALM      30.54S
RUSH CITY      CLOUDY    18   4  54 NE6       30.55F WCI  10
MOOSE LAKE     CLOUDY    10   7  85 CALM      30.53F
HINCKLEY       FAIR      18   5  57 NE3       30.55F
CLOQUET        PTCLDY    14   0  52 CALM      30.54F
MCGREGOR       CLOUDY    12   9  85 CALM      30.54F
$$
MNZ071>073-080-081-089-090-097-098-221000-
   Southwest Minnesota

CITY           SKY/WX    TMP DP  RH WIND       PRES   REMARKS
MONTEVIDEO     CLOUDY    18  12  79 SE6       30.52F WCI   9
GRANITE FALLS  CLOUDY    22  13  70 E6        30.52F WCI  14
CANBY          CLOUDY    21  17  83 CALM      30.50F
MARSHALL       CLOUDY    21  14  74 SE6       30.50F WCI  13
REDWOOD FALLS  PTCLDY    22   9  57 E6        30.51F WCI  14
OLIVIA         PTCLDY    21  12  68 E5        30.51S WCI  15
PIPESTONE      CLOUDY    23  12  63 SE8       30.44S WCI  14
WINDOM         CLOUDY    19  16  86 E3        30.48S
WORTHINGTON    CLOUDY    22  16  78 E9        30.46F WCI  12
JACKSON        CLOUDY    23  14  68 E7        30.48S WCI  15
TRACY          CLOUDY    22  15  75 SE6       30.49F WCI  14
SLAYTON        CLOUDY    21  14  75 E7        30.47S WCI  12
$$
MNZ065>067-074>077-082>085-091>093-221000-
   South Central Minnesota

CITY           SKY/WX    TMP DP  RH WIND       PRES   REMARKS
MANKATO        CLOUDY    22  12  65 E5        30.52F WCI  16
NEW ULM        CLOUDY    21   9  58 E5        30.51F WCI  15
ST JAMES       CLOUDY    23  14  68 CALM      30.51F
GLENCOE        PTCLDY    21  13  71 CALM      30.52S
FARIBAULT      CLEAR     21  12  68 NE3       30.52S
OWATONNA       CLEAR     23  12  63 E7        30.50S WCI  15
WASECA         CLEAR     23  14  68 NE9       30.52S WCI  13
ALBERT LEA     CLEAR     21  12  68 E8        30.49S WCI  12
$$
MNZ078>079-086>088-094>096-221000-
   Southeast Minnesota

CITY           SKY/WX    TMP DP  RH WIND       PRES   REMARKS
ROCHESTER      CLEAR     21  11  65 NE8       30.50R WCI  11
RED WING       PTCLDY    23   5  46 E3        30.54S
STANTON        PTCLDY    22  15  74 E3        30.52S
DODGE CENTER   CLEAR     21  12  68 NE7       30.50S WCI  13
WINONA         PTCLDY    28  12  50 E6        30.55F WCI  22
AUSTIN         CLEAR     23  12  63 NE8       30.49F WCI  14
PRESTON        CLEAR     22  11  64 NE6       30.50S WCI  14
$$
ABBREVIATIONS USED IN REMARKS
   TC - TEMPERATURES IN CELSIUS
  WCI - WIND CHILL INDEX
   HX - HEAT INDEX
  VSB - VISIBILITY
$$




USA.gov is the U.S. government's official web portal to all federal, state and local government web resources and services.